Location: Carnetin
(48.9010°N, 2.7059°E)
Time: 20:09:19
(UTC+00:00)

Cosmos 1825 - Pass Details

Date: 01 June 2022
Orbit: 496 x 499 km, 82.5° (Epoch: 24 June)

Event Time Altitude Azimuth Distance (km) Brightness Sun altitude
Exits shadow 02:53:25 - 178° (S) 2,367 5.1 -7.8°
Reaches altitude 10° 02:55:02 10° 175° (S) 1,693 4.4 -7.6°
Maximum altitude 02:58:41 59° 96° (E) 582 2.7 -7.2°
Drops below altitude 10° 03:02:22 10° 17° (NNE) 1,709 6.0 -6.8°
Sets 03:04:31 0° 13° (NNE) 2,598 6.9 -6.5°
